Regional Weather Roundup
Issued by NWS

Home | Current Version | Previous Version | Graphics & Text | Print | Product List | Glossary On
Versions: 1 2 3 4 5 6 7 8 9 10 11 12 13 14 15 16 17 18 19 20 21 22 23 24 25 26 27 28 29 30 31 32 33 34 35 36 37 38 39 40 41 42 43 44 45 46 47 48 49 50
000
ASUS43 KIND 270459
RWRIN

WEATHER ROUNDUP FOR INDIANA
NATIONAL WEATHER SERVICE INDIANAPOLIS IN
100 AM EDT MON MAR 27 2017

NOTE: "FAIR" INDICATES FEW OR NO CLOUDS BELOW 12,000 FEET WITH NO
SIGNIFICANT WEATHER AND/OR OBSTRUCTIONS TO VISIBILITY.

* - STATION DOES NOT REPORT WEATHER SUCH AS PRECIPITATION OR FOG.

+ - STATION NOT QUALITY CONTROLLED BY THE NATIONAL WEATHER SERVICE.
    USE DATA WITH CAUTION...ESPECIALLY DEWPOINT AND RELATIVE
    HUMIDITY OBSERVATIONS.

INZ001>003-010>013-019-020-270600-
NORTHWEST INDIANA

CITY           SKY/WX    TMP DP  RH WIND       PRES   REMARKS
KNOX *+        CLOUDY    50  37  62 SW9       29.90S
MONTICELLO +   CLOUDY    52  49  91 W8        29.92S

$$

LMZ046-743>745-270600-
SOUTHERN LAKE MICHIGAN

STATION/POSITION TIME  TEMP    WIND        PRES    WAVE
                       AIR SEA DIR/SP/G            HT
                 (UTC) (F)     (DEG/KT/KT) (MB)    (FT)
BURNS HARBOR     0440   52     220/  8/ 10 1012.5F
MICHIGAN CITY    0430   51     230/ 15/ 15   N/A

$$

INZ004-005-014>016-021>024-270600-
NORTH CENTRAL INDIANA

CITY           SKY/WX    TMP DP  RH WIND       PRES   REMARKS
GOSHEN         CLOUDY    53  49  86 SW7       29.89F
PERU/GRISSOM   CLOUDY    54  54 100 W8        29.91S
SOUTH BEND     CLOUDY    52  51  97 SW9       29.89F

$$

INZ006>009-017-018-025>027-270600-
NORTHEAST INDIANA

CITY           SKY/WX    TMP DP  RH WIND       PRES   REMARKS
ANGOLA *+      CLOUDY    52  45  76 SW5       29.89S
FORT WAYNE     DRIZZLE   54  50  86 W10       29.91S
KENDALLVILLE + CLOUDY    53  53 100 SW7       29.90S

$$

INZ028-029-035-036-043>045-051>053-270600-
WEST CENTRAL INDIANA

CITY           SKY/WX    TMP DP  RH WIND       PRES   REMARKS
CRAWFORDSVL +  CLOUDY    51  50  97 SW7       29.94F
LAFAYETTE      CLOUDY    52  51  97 W7        29.93S FOG
TERRE HAUTE    CLOUDY    49  46  90 CALM      29.97R

$$

INZ030>032-037>040-046>048-054>057-064-065-270600-
CENTRAL INDIANA

CITY           SKY/WX    TMP DP  RH WIND       PRES   REMARKS
INDIANAPOLIS   PTCLDY    49  46  90 SW7       29.94F
-EAGLE CREEK   CLEAR     52  47  83 SW3       29.94F
KOKOMO +       CLOUDY    53  51  93 SW9       29.93F
SHELBYVILLE    CLEAR     51  46  83 S3        29.94F

$$

INZ033-034-041-042-049-050-058-059-270600-
EAST CENTRAL INDIANA

CITY           SKY/WX    TMP DP  RH WIND       PRES   REMARKS
MUNCIE         CLOUDY    56  49  77 SW8       29.94S
RICHMOND +     CLEAR     50  46  87 W10       29.96S

$$

INZ060-061-067>069-081>083-085>088-270600-
SOUTHWEST INDIANA

CITY           SKY/WX    TMP DP  RH WIND       PRES   REMARKS
EVANSVILLE     PTCLDY    50  46  86 CALM      29.98F
HUNTINGBURG *+ PTCLDY    47  45  93 S3        29.98F

$$

INZ062-063-066-070>080-084-089>092-270600-
SOUTH CENTRAL AND SOUTHEAST INDIANA

CITY           SKY/WX    TMP DP  RH WIND       PRES   REMARKS
BLOOMINGTON    CLOUDY    50  46  86 SW6       29.96F
MADISON *+     CLOUDY    48  46  93 CALM      30.00F
SEYMOUR +      CLOUDY    48  45  87 S5        29.97F

$$




USA.gov is the U.S. government's official web portal to all federal, state and local government web resources and services.